Regional Weather Roundup
Issued by NWS

Home | Current Version | Previous Version | Graphics & Text | Print | Product List | Glossary On
Versions: 1 2 3 4 5 6 7 8 9 10 11 12 13 14 15 16 17 18 19 20 21 22 23 24 25 26 27 28 29 30 31 32 33 34 35 36 37 38 39 40 41 42 43 44 45 46 47 48 49 50
000
ASUS43 KFSD 241410
RWRSD

WEATHER ROUNDUP FOR SOUTH DAKOTA
NATIONAL WEATHER SERVICE SIOUX FALLS SD
900 AM CDT FRI OCT 24 2014

NOTE: "FAIR" INDICATES FEW OR NO CLOUDS BELOW 12,000 FEET WITH NO
SIGNIFICANT WEATHER AND/OR OBSTRUCTIONS TO VISIBILITY.


SDZ001>005-009-010-012>017-241500-
NORTHWEST AND NORTH CENTRAL SOUTH DAKOTA

CITY           SKY/WX    TMP DP  RH WIND       PRES   REMARKS
BUFFALO          N/A     46  29  51 W6        29.88R
FAITH            N/A     45  30  55 W8        29.92R
MOBRIDGE       CLOUDY    42  38  85 CALM      29.87R
$$

SDZ012>016-024>037-041>051-057-063-072>074-241500-
SOUTHWEST AND SOUTH CENTRAL SOUTH DAKOTA

CITY           SKY/WX    TMP DP  RH WIND       PRES   REMARKS
RAPID CTY ARPT CLOUDY    50  33  52 N12       29.95R
PIERRE         CLOUDY    41  34  76 W5        29.90R
CUSTER         CLOUDY    52  24  33 W7        30.07R
ELLSWORTH AFB  CLEAR     47  34  61 W5        29.96R
PHILIP         CLOUDY    40  33  76 W3        29.93R
PINE RIDGE     CLOUDY    52  37  56 W8        29.98R
SPEARFISH      FAIR      48  30  49 CALM      30.00R
$$

SDZ004>011-016>023-039-040-241500-
NORTHEAST SOUTH DAKOTA

CITY           SKY/WX    TMP DP  RH WIND       PRES   REMARKS
ABERDEEN       MOCLDY    37  35  92 S3        29.86R
WATERTOWN      CLOUDY    42  42 100 CALM      29.87R FOG
SISSETON         N/A     45  43  93 S5        29.83R
$$

SDZ017-020-022-023-036>040-048>070-241500-
SOUTHEAST SOUTH DAKOTA

CITY           SKY/WX    TMP DP  RH WIND       PRES   REMARKS
SIOUX FALLS    CLOUDY    50  49  96 W5        29.88R FOG
HURON          CLOUDY    40  37  89 CALM      29.88R
CHAMBERLAIN    CLOUDY    44  38  79 W5        29.90R
MITCHELL       CLOUDY    44  41  89 W3        29.89R
YANKTON        CLOUDY    54  48  82 W7        29.89R
$$

ABBREVIATIONS USED IN REMARKS
   TC - TEMPERATURE IN CELSIUS
  WCI - WIND CHILL INDEX
   HX - HEAT INDEX
  VSB - VISIBILITY




USA.gov is the U.S. government's official web portal to all federal, state and local government web resources and services.